Hamilton, OH

5:59 AM EDT on August 17, 2017 (GMT -0400)
Butler County Regional

Weather History for KHAO - May, 2013

Change the Weather History Date:

Wednesday, May 22, 2013

  Actual Average (KLUK) Record (KLUK)
Temperature  
Mean Temperature 72 °F -  
Max Temperature 82 °F 76 °F 90 °F (1964)
Min Temperature 64 °F 55 °F 34 °F (2002)
Cooling Degree Days 8    
Growing Degree Days 22 (Base 50)    
Moisture  
Dew Point 63 °F    
Average Humidity 79    
Maximum Humidity 94    
Minimum Humidity 54    
Precipitation  
Precipitation 0.35 in - - ()
Sea Level Pressure  
Sea Level Pressure 29.80 in    
Wind  
Wind Speed 4 mph (SSW)    
Max Wind Speed 13 mph    
Max Gust Speed 22 mph    
Visibility 8 miles    
Events Fog , Rain , Thunderstorm    
Averages and records for this station are not official NWS values.
T = Trace of Precipitation, MM = Missing Value Source: NWS Daily Summary

Daily Weather History Graph

Daily Weather History Graph

Search for Another Location

Airport or City:

Trip Planner

Search our weather history database for the weather conditions in past years. The results will help you decide how hot, cold, wet, or windy it might be!

Date:

Astronomy

May. 22, 2013 Rise Set
Actual Time 6:18 AM EDT 8:51 PM EDT
Civil Twilight 5:47 AM EDT 9:22 PM EDT
Nautical Twilight 5:09 AM EDT 10:00 PM EDT
Astronomical Twilight 4:26 AM EDT 10:44 PM EDT
Moon 6:13 PM EDT (5/22) 4:21 AM EDT (5/22)
Length of Visible Light 15h 34m
Length of Day
14h 32m
Waxing Gibbous, 91% of the Moon is Illuminated
May 22
Waxing Gibbous
May 25
Full
May 31
Last Quarter
Jun 8
New
Jun 16
First Quarter

Hourly Weather History & Observations

Time (EDT) Temp. Heat Index Dew Point Humidity Pressure Visibility Wind Dir Wind Speed Gust Speed Precip Events Conditions
12:53 AM 70.0 °F - 62.1 °F 76% 29.85 in 10.0 mi Variable 4.6 mph - N/A   Mostly Cloudy
1:53 AM 69.1 °F - 61.0 °F 75% 29.83 in 10.0 mi Variable 3.5 mph - N/A   Clear
2:53 AM 66.9 °F - 61.0 °F 81% 29.83 in 10.0 mi Calm Calm - N/A   Clear
3:53 AM 66.0 °F - 61.0 °F 84% 29.81 in 10.0 mi Calm Calm - N/A   Clear
4:53 AM 64.0 °F - 61.0 °F 90% 29.82 in 10.0 mi Calm Calm - N/A   Partly Cloudy
5:53 AM 64.9 °F - 62.1 °F 90% 29.82 in 10.0 mi Calm Calm - N/A   Clear
6:53 AM 66.0 °F - 61.0 °F 84% 29.83 in 10.0 mi SSE 3.5 mph - N/A   Clear
7:53 AM 68.0 °F - 62.1 °F 81% 29.83 in 10.0 mi Calm Calm - N/A   Mostly Cloudy
8:53 AM 70.0 °F - 62.1 °F 76% 29.83 in 10.0 mi South 5.8 mph - N/A   Mostly Cloudy
9:53 AM 71.1 °F - 62.1 °F 73% 29.83 in 10.0 mi SSW 8.1 mph - N/A   Overcast
10:53 AM 73.9 °F - 63.0 °F 68% 29.83 in 10.0 mi SSW 6.9 mph - N/A   Scattered Clouds
11:53 AM 73.9 °F - 62.1 °F 66% 29.83 in 10.0 mi South 8.1 mph - N/A   Clear
12:53 PM 78.1 °F - 62.1 °F 58% 29.82 in 10.0 mi South 12.7 mph 17.3 mph N/A   Clear
1:53 PM 79.0 °F - 62.1 °F 56% 29.81 in 10.0 mi SW 9.2 mph 20.7 mph N/A   Scattered Clouds
2:53 PM 79.0 °F - 63.0 °F 58% 29.80 in 10.0 mi SW 10.4 mph 16.1 mph N/A   Mostly Cloudy
3:53 PM 81.0 °F 82.2 °F 63.0 °F 54% 29.77 in 10.0 mi SSW 9.2 mph 18.4 mph N/A   Scattered Clouds
4:53 PM 79.0 °F - 63.0 °F 58% 29.75 in 10.0 mi SSW 12.7 mph 21.9 mph N/A Thunderstorm Partly Cloudy
5:09 PM 77.0 °F - 62.6 °F 61% 29.76 in 10.0 mi Variable 6.9 mph 16.1 mph 0.00 in Rain Light Rain
5:53 PM 73.9 °F - 66.9 °F 79% 29.76 in 10.0 mi SW 5.8 mph - 0.00 in Rain Light Rain
6:53 PM 73.0 °F - 66.0 °F 79% 29.77 in 10.0 mi SW 5.8 mph - 0.00 in Thunderstorm Overcast
7:12 PM 71.6 °F - 66.2 °F 83% 29.78 in 1.5 mi SW 8.1 mph - 0.07 in Rain , Thunderstorm Light Rain
7:20 PM 69.8 °F - 66.2 °F 88% 29.79 in 0.2 mi SW 6.9 mph 17.3 mph 0.29 in Fog , Rain , Thunderstorm Heavy Thunderstorms and Rain
7:27 PM 69.8 °F - 66.2 °F 88% 29.79 in 0.8 mi Variable 5.8 mph - 0.33 in Rain , Thunderstorm Thunderstorms and Rain
7:32 PM 68.0 °F - 66.2 °F 94% 29.79 in 1.8 mi SSW 4.6 mph - 0.34 in Rain , Thunderstorm Heavy Thunderstorms and Rain
7:36 PM 68.0 °F - 66.2 °F 94% 29.79 in 3.0 mi SSW 5.8 mph - 0.34 in Rain , Thunderstorm Light Thunderstorms and Rain
7:53 PM 66.9 °F - 64.9 °F 93% 29.78 in 6.0 mi SSW 3.5 mph - 0.34 in Rain , Thunderstorm Light Rain
8:01 PM 66.2 °F - 64.4 °F 94% 29.79 in 8.0 mi Calm Calm - 0.01 in Rain Light Rain
8:53 PM 68.0 °F - 66.0 °F 93% 29.78 in 10.0 mi SSW 3.5 mph - 0.01 in   Overcast
9:53 PM 66.9 °F - 64.9 °F 93% 29.79 in 10.0 mi Calm Calm - N/A   Clear
10:53 PM 64.9 °F - 63.0 °F 93% 29.80 in 8.0 mi Variable 3.5 mph - N/A   Clear
11:53 PM 64.9 °F - 63.0 °F 93% 29.81 in 7.0 mi Calm Calm - N/A   Clear